Simultaneous Nadir Overpasses (SNOs) Predictions

Prediction of SNOs between AURA and NPP Satellite Orbit:

Table of predicted SNOs for the next 14.0 days since TLE Epoch: 1/30/2021
Index Date (AURA) Time (AURA) Lat,Lon (AURA) SZA (AURA ) Date (NPP) Time (NPP) Lat,Lon (NPP) SZA (NPP ) Distance(km) Time Diff (sec)
1 01/30/2021 11:24:55 -79.52, 85.72 69.81 01/30/2021 11:24:15 -79.51, 85.68 69.77 0.91 40
2 01/30/2021 12:14:13 79.77,-104.77 109.81 01/30/2021 12:14:50 79.78,-104.69 109.77 1.69 37
3 02/02/2021 03:41:20 -79.62,-157.63 70.69 02/02/2021 03:41:06 -79.62,-157.66 70.68 0.68 14
4 02/02/2021 04:30:39 79.87, 11.90 108.92 02/02/2021 04:31:42 79.88, 12.01 108.86 2.09 63
5 02/04/2021 19:08:27 79.42, 149.16 108.85 02/04/2021 19:07:22 79.41, 149.03 108.93 2.77 65
6 02/04/2021 19:57:47 -79.69, -41.28 71.56 02/04/2021 19:57:59 -79.69, -41.28 71.57 0.27 12
7 02/07/2021 11:24:53 79.51, -94.29 107.91 02/07/2021 11:24:14 79.51, -94.36 107.95 1.41 39
8 02/07/2021 12:14:13 -79.78, 75.31 72.51 02/07/2021 12:14:51 -79.79, 75.38 72.55 1.48 38
9 02/10/2021 03:41:18 79.64, 22.51 106.88 02/10/2021 03:41:05 79.64, 22.54 106.88 0.49 13
10 02/10/2021 04:30:40 -79.80,-168.67 73.37 02/10/2021 04:31:45 -79.79,-168.82 73.39 3.09 65
11 02/12/2021 19:08:24 -79.48, -30.41 73.75 02/12/2021 19:07:20 -79.48, -30.41 73.70 0.15 64



Historial Predications of SNOs between AURA and NPP
